Marion, OH

1:43 PM EDT on August 24, 2016 (GMT -0400)
Marion Municipal

Weather History for KMNN - December, 2013

Change the Weather History Date:

Tuesday, December 3, 2013

  Actual Average (KDLZ) Record (KDLZ)
Temperature  
Mean Temperature 42 °F -  
Max Temperature 50 °F 43 °F 69 °F (1982)
Min Temperature 33 °F 26 °F -3 °F (1976)
Degree Days  
Heating Degree Days 24    
Moisture  
Dew Point 36 °F    
Average Humidity 90    
Maximum Humidity 100    
Minimum Humidity 74    
Precipitation  
Precipitation 0.03 in - - ()
Sea Level Pressure  
Sea Level Pressure 29.87 in    
Wind  
Wind Speed 4 mph (SE)    
Max Wind Speed 12 mph    
Max Gust Speed -    
Visibility 3 miles    
Events Rain    
Averages and records for this station are not official NWS values.
T = Trace of Precipitation, MM = Missing Value Source: NWS Daily Summary

Daily Weather History Graph

Daily Weather History Graph

Search for Another Location

Airport or City:

Trip Planner

Search our weather history database for the weather conditions in past years. The results will help you decide how hot, cold, wet, or windy it might be!

Date:

Astronomy

Dec. 03, 2013 Rise Set
Actual Time 7:38 AM EST 5:05 PM EST
Civil Twilight 7:08 AM EST 5:35 PM EST
Nautical Twilight 6:34 AM EST 6:09 PM EST
Astronomical Twilight 6:01 AM EST 6:42 PM EST
Moon 8:06 AM EST (12/3) 6:07 PM EST (12/3)
Length of Visible Light 10h 27m
Length of Day
9h 26m
New Moon, 1% of the Moon is Illuminated
Dec 3
New Moon
Dec 9
First Quarter
Dec 17
Full
Dec 25
Last Quarter
Jan 1
New

Hourly Weather History & Observations

Time (EST) Temp. Windchill Dew Point Humidity Pressure Visibility Wind Dir Wind Speed Gust Speed Precip Events Conditions
12:20 AM 33.8 °F 30.8 °F 32.0 °F 93% 29.86 in 2.0 mi NE 3.5 mph - 0.01 in Rain Light Rain
12:53 AM 34.0 °F - 33.1 °F 96% 29.88 in 2.0 mi Calm Calm - 0.02 in Rain Light Rain
1:02 AM 33.8 °F - 32.0 °F 93% 29.85 in 1.8 mi Calm Calm - 0.00 in Rain Light Rain
1:17 AM 33.8 °F - 33.8 °F 100% 29.85 in 2.0 mi Calm Calm - 0.00 in Rain Light Rain
1:32 AM 33.8 °F - 33.8 °F 100% 29.85 in 1.8 mi Calm Calm - 0.00 in   Overcast
1:50 AM 33.8 °F 30.8 °F 33.8 °F 100% 29.85 in 2.0 mi East 3.5 mph - 0.00 in   Overcast
1:53 AM 34.0 °F 31.0 °F 33.1 °F 96% 29.88 in 2.0 mi East 3.5 mph - 0.00 in   Overcast
2:06 AM 33.8 °F 30.8 °F 33.8 °F 100% 29.85 in 1.8 mi NE 3.5 mph - N/A   Overcast
2:26 AM 33.8 °F - 33.8 °F 100% 29.85 in 1.8 mi Calm Calm - 0.00 in Rain Light Rain
2:53 AM 34.0 °F - 33.1 °F 96% 29.88 in 1.5 mi Calm Calm - 0.01 in   Overcast
3:53 AM 35.1 °F 30.1 °F 34.0 °F 96% 29.87 in 1.8 mi ESE 5.8 mph - 0.00 in   Overcast
4:00 AM 35.6 °F 29.9 °F 33.8 °F 93% 29.83 in 2.0 mi ESE 6.9 mph - N/A   Overcast
4:53 AM 35.1 °F 31.0 °F 34.0 °F 96% 29.87 in 2.0 mi ESE 4.6 mph - N/A   Overcast
5:33 AM 35.6 °F 30.7 °F 33.8 °F 93% 29.84 in 2.5 mi ESE 5.8 mph - N/A   Overcast
5:53 AM 35.1 °F 31.0 °F 34.0 °F 96% 29.88 in 2.0 mi SE 4.6 mph - N/A   Overcast
6:37 AM 35.6 °F 29.2 °F 33.8 °F 93% 29.84 in 3.0 mi SE 8.1 mph - N/A   Overcast
6:53 AM 35.1 °F 31.0 °F 33.1 °F 92% 29.87 in 2.5 mi East 4.6 mph - N/A   Mostly Cloudy
7:53 AM 34.0 °F 28.8 °F 32.0 °F 92% 29.88 in 1.5 mi SE 5.8 mph - N/A   Clear
8:53 AM 36.0 °F 32.1 °F 34.0 °F 93% 29.90 in 1.8 mi SSE 4.6 mph - N/A   Clear
9:24 AM 37.4 °F 33.8 °F 33.8 °F 87% 29.88 in 2.0 mi SE 4.6 mph - N/A   Clear
9:33 AM 37.4 °F 33.8 °F 35.6 °F 93% 29.87 in 1.8 mi SSE 4.6 mph - N/A   Clear
9:53 AM 39.0 °F 32.3 °F 36.0 °F 89% 29.89 in 1.8 mi SSE 10.4 mph - N/A   Clear
10:03 AM 39.2 °F 32.0 °F 35.6 °F 87% 29.86 in 2.0 mi SSE 11.5 mph - N/A   Clear
10:46 AM 42.8 °F 36.6 °F 39.2 °F 87% 29.87 in 3.0 mi SSE 11.5 mph - N/A   Clear
10:53 AM 44.1 °F 39.5 °F 39.0 °F 82% 29.90 in 3.0 mi South 8.1 mph - N/A   Haze
11:53 AM 46.9 °F - 41.0 °F 80% 29.88 in 4.0 mi South 11.5 mph - N/A   Haze
12:53 PM 48.0 °F - 41.0 °F 77% 29.88 in 4.0 mi SSW 6.9 mph - N/A   Haze
1:53 PM 50.0 °F - 42.1 °F 74% 29.87 in 4.0 mi SSW 5.8 mph - N/A   Haze
2:53 PM 50.0 °F - 43.0 °F 77% 29.85 in 4.0 mi SSE 6.9 mph - N/A   Haze
3:53 PM 48.9 °F - 42.1 °F 77% 29.85 in 4.0 mi South 4.6 mph - N/A   Haze
4:53 PM 46.9 °F - 41.0 °F 80% 29.87 in 4.0 mi South 4.6 mph - N/A   Haze
5:53 PM 44.1 °F 41.5 °F 39.9 °F 85% 29.88 in 5.0 mi South 4.6 mph - N/A   Overcast
6:53 PM 44.1 °F 40.1 °F 41.0 °F 89% 29.87 in 5.0 mi SE 6.9 mph - N/A   Mostly Cloudy
7:53 PM 44.1 °F 39.0 °F 41.0 °F 89% 29.85 in 5.0 mi SSE 9.2 mph - N/A   Clear
8:53 PM 43.0 °F 40.3 °F 39.9 °F 89% 29.87 in 5.0 mi South 4.6 mph - N/A   Clear
9:53 PM 45.0 °F 40.6 °F 41.0 °F 86% 29.86 in 5.0 mi SSE 8.1 mph - N/A   Clear
10:53 PM 43.0 °F - 39.9 °F 89% 29.86 in 5.0 mi Calm Calm - N/A   Clear
11:53 PM 42.1 °F 38.4 °F 39.9 °F 92% 29.88 in 4.0 mi SSE 5.8 mph - N/A   Overcast